User: anonymous   Login
Location: Fontevrault
(47.1823°N, 0.0493°E)
Time: 06:25:46
(UTC+00:00)
Language:

COSMOS 2428 - Orbit

View from above orbital plane
View from above orbital plane
View from above satellite
View from above satellite

Ground track
Ground track

The orbit data is extracted from the following two-line orbital elements,

1 31792U 07029A   21263.31337047  .00000294  00000-0  18576-3 0  9997
2 31792  70.9151  26.7018 0005738 103.3831 256.7930 14.12356278733704
Epoch (UTC): 20 September 2021 07:31:15
Eccentricity: 0.0005738
inclination: 70.9151°
perigee height: 847 km
apogee height: 855 km
right ascension of ascending node: 26.7018°
argument of perigee: 103.3831°
revolutions per day: 14.12356278
mean anomaly at epoch: 256.7930°
orbit number at epoch: 73370

The dashed part of the orbit path shows where the satellite is in the earth's shadow,  

DLR